TRANSIT 11 DEB, 11991

Orbit data source: Space-Track

TRANSIT 11 DEB, 11991 is space debris in LEO originally from a launch on Fri, 28 Jan 1966 UTC launched from the Air Force Western Test Range (AFWTR). Debris objects in space refer to the collection of defunct objects orbiting the Earth. Examples of debris include non-operational satellites, rocket bodies, and fragments generated from explosions, collisions, or faulty payload assembly.

Loading next visibility...
Identifier
11991, 1966-005H
Orbit
LEO
Country
Flag of USUS
Related business
Manufacturer
Unknown
Mission
Spacecraft
Bus & Motor
Unknown
Mass
Unknown
Launch date (UTC)
1966-01-28 (60 years ago)
Launch vehicle
Unknown
Launch site
Air Force Western Test Range (AFWTR)
Object type
Payload
Rocket body
Debris
Shape & HBR
Unknown
Radar Cross Section
Medium (>0.1 m² and <1 m²)

Expand to show TLE details & history
Last TLE update: 17 hours ago

TLE from 17 hours ago
0 TRANSIT 11 DEB
1 11991U 66005H   25258.50852090  .00000628  00000-0  48794-3 0  9990
2 11991  90.1716 337.6847 0177748 103.8919 320.0734 13.84364973983388
Epoch: 2025-09-15T12:12Z
TLE epoch observation values (Epoch: 2025-09-15T12:12:16.205Z)
Latitude
62.72389°
Longitude
159.57396°
Altitude
860.394 km
Speed
7.478 km/s
True Right ascension
22h 29m 24s
True Declination
62° 35' 08"
Sunlit
Object was in daylight at epoch
Visualization orbit readout
Latitude
Unknown
Longitude
Unknown
Altitude
Unknown
Speed
Unknown
Apparent Right ascension
Unknown
Apparent Declination
Unknown
Sunlit
N/A
Visualization observer readout
Local Sidereal Time
21:50:07
Azimuth
Unknown
Elevation
Unknown
Doppler factor
Unknown
Orbital elements
Apogee altitude
1,075.619 km
Perigee altitude
815.269 km
Semi-major axis
7,323.581 km
Eccentricity
0.01777
Inclination
90.1716°
RAAN
337.6847°
Arg. of periapsis
103.8919°
True anomaly
318.74362°
Mean anomaly
320.0734°
Eccentric anomaly
319.41078°
Mean motion
3.46304 °/min
Orbital period
103.95 mins
BSTAR
0.00048794
Loading maneuver chart data...
Computing Atmospheric mass density...
Loading historical data...
Loading historical data...
Loading historical data...
Loading historical data...
Loading historical data...
Loading historical data...
Loading historical data...

Documentation

Showing up to 5 results
|